[[{"header":{"parameterUnit":"m.s-1","parameterCategory":1,"la1":30.2991,"la2":30.254,"lo1":-89.0895,"lo2":-89.0444,"dy":0.0017,"dx":0.0017,"nx":28,"ny":28,"refTime":"2025-03-15T03:00:00:Z","depth":0,"parameterNumber":2,"parameterNumberName":"U-component_of_WINDS"},"data":[0,0,0,0,0,0,0,0,0,0,0,0,0,0,0,0,0,0,0,0,0,0,0,0,0,0,0,0,0,0,0,0,0,0,0,0,0,0,0,0,0,0,0,0,0,0,0,0,0,0,0,0,0,0,0,0,0,0,4.2077,4.2078,0,4.2189,4.219,4.2192,4.2157,4.2154,4.2152,4.215,4.2264,4.227,4.2275,0,0,0,0,0,0,0,0,0,0,0,0,0,4.1833,4.1837,4.2076,4.2078,4.2079,4.2189,4.219,4.2192,4.2157,4.2154,4.2151,4.2148,4.2263,4.2269,4.2275,0,0,0,0,0,0,0,0,0,0,0,0,0,4.1941,4.1839,4.2076,4.2075,4.2076,4.2189,4.2191,4.2192,4.2158,4.2154,4.215,4.2147,4.2261,4.2268,4.2276,4.2397,0,0,4.23,4.2304,0,0,0,0,0,0,0,0,4.1935,4.195,4.2074,4.2075,4.2077,4.2155,4.2147,4.2261,4.2159,4.2127,4.215,4.2145,4.2231,4.2241,4.227,4.2402,4.2407,4.2301,4.2306,4.2309,4.2312,0,0,0,0,0,0,0,4.1928,4.1945,4.2121,4.2076,4.2077,4.2069,4.2081,4.2168,4.2197,4.2129,4.2127,4.2141,4.2231,4.2263,4.2272,4.2409,4.2301,4.2308,4.2313,4.2316,4.2648,4.2652,0,0,0,0,0,0,4.1919,4.1939,4.2117,4.2124,4.1996,4.2077,4.209,4.2134,4.2196,4.2203,4.2144,4.2139,4.2251,4.2263,4.2276,4.2423,4.2309,4.2317,4.2321,4.2644,4.2649,4.2653,0,0,0,0,0,0,4.1914,4.1935,4.2113,4.2031,4.2053,4.2085,4.2134,4.2138,4.2169,4.2207,4.2212,4.217,4.2248,4.2265,4.2368,4.2427,4.232,4.2327,4.2639,4.2645,4.2651,4.2717,0,0,0,0,0,0,4.1907,4.1934,4.1979,4.2033,4.2058,4.2202,4.2138,4.2142,4.2183,4.2177,4.2234,4.224,4.2247,4.2356,4.2376,4.2436,4.2334,4.2634,4.2642,4.2649,4.2709,4.2724,4.2737,0,0,0,0,0,4.1899,4.1993,4.1982,4.2003,4.2115,4.2205,4.222,4.2226,4.2188,4.2234,4.2259,4.2238,4.2417,4.2367,4.2388,4.2452,4.263,4.2639,4.2648,4.2703,4.2721,4.2737,0,0,0,0,0,0,4.1945,4.1999,4.1988,4.2102,4.215,4.2199,4.2258,4.2245,4.2304,4.2296,4.2302,4.2315,4.2421,4.2446,4.2389,4.2573,4.2518,4.2532,4.2552,4.257,4.2583,4.2575,4.234,0,0,0,0,0,4.1968,4.2036,4.2081,4.2177,4.2202,4.2226,4.2265,4.2267,4.2316,4.2336,4.2368,4.2417,4.2484,4.2528,4.2592,4.2713,4.2726,4.2768,4.2782,4.2793,4.2805,4.2873,4.2892,4.2683,4.2683,4.2683,0,0,4.2017,4.2056,4.2098,4.2188,4.2224,4.2296,4.2243,4.232,4.2373,4.2347,4.2446,4.2472,4.2527,4.264,4.2691,4.2664,4.2866,4.2804,4.2813,4.2819,4.2884,4.2904,4.2922,4.2689,4.2688,4.2687,0,0,4.2143,4.2179,4.2264,4.2303,4.2359,4.2375,4.2396,4.2449,4.2465,4.2565,4.2548,4.2611,4.2727,4.2767,4.2803,4.2948,4.2931,4.2969,4.3041,4.3107,4.3124,4.3138,4.3192,4.321,4.298,4.2981,4.2981,0,4.2197,4.2303,4.2309,4.2389,4.243,4.241,4.2497,4.2534,4.2609,4.2638,4.2608,4.2754,4.2789,4.2913,4.2948,4.2977,4.3002,4.2962,4.3121,4.3136,4.3149,4.32,4.322,4.2985,4.2984,4.2984,4.2984,0,4.2368,4.2442,4.2504,4.2578,4.2626,4.2709,4.2728,4.2776,4.2774,4.2793,4.2896,4.2939,4.3012,4.3041,4.3039,4.3165,4.3147,4.3119,4.3064,4.3174,4.3221,4.3241,4.2991,4.299,4.2988,4.2987,0,0,4.2524,4.2602,4.2625,4.2659,4.2722,4.278,4.2863,4.2936,4.2977,4.303,4.3101,4.32,4.3176,4.3216,4.3219,4.3277,4.3392,4.3242,4.3243,4.3269,4.3535,4.3556,4.3579,4.3381,4.3385,4.3388,4.3531,0,4.2656,4.2802,4.2811,4.2944,4.3014,4.2998,4.307,4.3117,4.3139,4.3201,4.3225,4.3296,4.3257,4.3282,4.3339,4.3365,4.3445,4.3355,4.3448,4.3451,4.3435,4.3603,4.3626,4.3759,4.3549,4.3552,4.3555,0,4.283,4.2889,4.3029,4.3084,4.3114,4.3179,4.3247,4.3308,4.3361,4.3373,4.342,4.3415,4.3502,4.3444,4.3564,4.3503,4.3541,4.3561,4.3566,4.3575,4.351,4.3618,4.3801,4.3821,4.3584,4.3582,4.358,0,4.2932,4.3047,4.3146,4.3176,4.3242,4.3289,4.3318,4.3369,4.3412,4.3473,4.3501,4.357,4.3609,4.3663,4.3678,4.3634,4.3798,4.3741,4.3811,4.3811,4.3846,4.3844,4.4039,4.387,4.387,4.3869,4.3869,0,4.3079,4.3165,4.3193,4.3254,4.3351,4.3361,4.3457,4.3484,4.353,4.3596,4.3587,4.365,4.3665,4.3731,4.3744,4.3842,4.3859,4.3872,4.3874,4.3873,4.3872,4.3898,4.389,4.3875,4.3874,4.3873,4.3872,0,4.3209,4.3231,4.3338,4.3393,4.3409,4.3478,4.3525,4.3585,4.3605,4.369,4.3711,4.3743,4.3821,4.3842,4.3934,4.3943,4.406,4.4053,4.4042,4.4042,4.4111,4.4105,4.4331,4.4362,4.4172,4.4174,4.4175,0,4.3301,4.3368,4.343,4.3475,4.3507,4.3578,4.3623,4.3637,4.3684,4.3752,4.3804,4.3881,4.3943,4.4068,4.4101,4.4172,4.4168,4.4242,4.4178,4.4176,4.417,4.4166,4.4174,4.4254,4.4256,4.4258,4.4259,0,4.3464,4.3472,4.3537,4.3608,4.3662,4.3718,4.3772,4.3809,4.383,4.3884,4.3964,4.4013,4.4109,4.4186,4.4258,4.429,4.4279,4.4279,4.4299,4.4299,4.429,4.4297,4.4076,4.4274,4.4272,4.4271,4.427,4.427,4.3578,4.3638,4.3692,4.3766,4.3808,4.3859,4.3918,4.3947,4.4014,4.4093,4.4097,4.4185,4.4239,4.4336,4.4372,4.4441,4.4419,4.4447,4.4455,4.4462,4.4469,4.4279,4.4454,4.4454,4.4453,4.4453,4.4453,0,4.3741,4.3776,4.3844,4.392,4.3979,4.3964,4.4023,4.4074,4.4151,4.4203,4.4265,4.4358,4.4433,4.4473,4.4548,4.4596,4.4593,4.4615,4.4612,4.462,4.4484,4.4459,4.4617,4.4617,4.4617,4.4616,4.4616,4.4616,4.3833,4.3933,4.3948,4.407,4.4104,4.419,4.4225,4.4273,4.4314,4.4419,4.4482,4.4507,4.4555,4.4634,4.4703,4.4713,4.4741,4.4767,4.4774,4.4646,4.4629,4.4613,4.459,4.4773,4.4773,4.4904,4.4906,4.4907]},{"header":{"parameterUnit":"m.s-1","parameterCategory":1,"la1":30.2991,"la2":30.254,"lo1":-89.0895,"lo2":-89.0444,"dy":0.0017,"dx":0.0017,"nx":28,"ny":28,"refTime":"2025-03-15T03:00:00:Z","depth":0,"parameterNumber":3,"parameterNumberName":"V-component_of_WINDS"},"data":[0,0,0,0,0,0,0,0,0,0,0,0,0,0,0,0,0,0,0,0,0,0,0,0,0,0,0,0,0,0,0,0,0,0,0,0,0,0,0,0,0,0,0,0,0,0,0,0,0,0,0,0,0,0,0,0,0,0,-5.9001,-5.9002,0,-5.9145,-5.9146,-5.9148,-5.91,-5.9097,-5.9093,-5.909,-5.9237,-5.9244,-5.9251,0,0,0,0,0,0,0,0,0,0,0,0,0,-5.8685,-5.8691,-5.9001,-5.9003,-5.9004,-5.9145,-5.9147,-5.9148,-5.91,-5.9096,-5.9093,-5.9089,-5.9235,-5.9243,-5.9251,0,0,0,0,0,0,0,0,0,0,0,0,0,-5.8825,-5.8693,-5.9,-5.8997,-5.8998,-5.9144,-5.9147,-5.9149,-5.9101,-5.9096,-5.9092,-5.9087,-5.9232,-5.9242,-5.9252,-5.941,0,0,-5.9284,-5.9288,0,0,0,0,0,0,0,0,-5.8817,-5.8836,-5.8996,-5.8998,-5.8999,-5.9099,-5.9089,-5.9236,-5.9102,-5.9062,-5.909,-5.9085,-5.9195,-5.9208,-5.9245,-5.9417,-5.9423,-5.9285,-5.9291,-5.9295,-5.9298,0,0,0,0,0,0,0,-5.8807,-5.883,-5.9058,-5.8998,-5.9,-5.8989,-5.9004,-5.9117,-5.9153,-5.9065,-5.9062,-5.908,-5.9195,-5.9236,-5.9249,-5.9425,-5.9284,-5.9293,-5.93,-5.9304,-5.9735,-5.974,0,0,0,0,0,0,-5.8797,-5.8822,-5.9053,-5.9062,-5.8895,-5.8998,-5.9015,-5.9072,-5.9152,-5.916,-5.9084,-5.9077,-5.9221,-5.9237,-5.9254,-5.9445,-5.9295,-5.9305,-5.9311,-5.973,-5.9736,-5.9742,0,0,0,0,0,0,-5.879,-5.8818,-5.9047,-5.8941,-5.897,-5.9009,-5.9074,-5.9077,-5.9118,-5.9166,-5.9172,-5.9118,-5.9217,-5.9239,-5.9372,-5.9449,-5.9309,-5.9319,-5.9724,-5.9732,-5.9739,-5.9828,0,0,0,0,0,0,-5.8781,-5.8816,-5.8876,-5.8943,-5.8976,-5.9163,-5.9078,-5.9084,-5.9136,-5.9128,-5.92,-5.9207,-5.9215,-5.9357,-5.9382,-5.9461,-5.9327,-5.9717,-5.9727,-5.9737,-5.9818,-5.9838,-5.9854,0,0,0,0,0,-5.877,-5.8894,-5.8879,-5.8907,-5.9051,-5.9168,-5.9186,-5.9193,-5.9142,-5.9203,-5.9234,-5.9205,-5.9436,-5.9371,-5.9399,-5.9482,-5.9712,-5.9724,-5.9736,-5.981,-5.9834,-5.9854,0,0,0,0,0,0,-5.8834,-5.8903,-5.8887,-5.9036,-5.9097,-5.9159,-5.9236,-5.9218,-5.9294,-5.9284,-5.9289,-5.9306,-5.9443,-5.9475,-5.9401,-5.9639,-5.9567,-5.9585,-5.9613,-5.9636,-5.9654,-5.9644,-5.9335,0,0,0,0,0,-5.8865,-5.8954,-5.901,-5.9136,-5.9167,-5.9197,-5.9248,-5.9248,-5.9311,-5.9336,-5.9377,-5.9439,-5.9526,-5.9583,-5.9665,-5.9822,-5.9838,-5.9893,-5.9911,-5.9926,-5.9942,-6.0029,-6.0055,-5.9781,-5.9781,-5.9781,0,0,-5.8931,-5.898,-5.9036,-5.915,-5.9197,-5.929,-5.9219,-5.9319,-5.9388,-5.9351,-5.948,-5.9512,-5.9581,-5.9728,-5.9794,-5.9759,-6.0021,-5.9941,-5.9953,-5.9961,-6.0044,-6.007,-6.0093,-5.9789,-5.9788,-5.9787,0,0,-5.9099,-5.9144,-5.9256,-5.9305,-5.9377,-5.9396,-5.9423,-5.9489,-5.9509,-5.9638,-5.9614,-5.9695,-5.9844,-5.9896,-5.9941,-6.0131,-6.0107,-6.0157,-6.0253,-6.0338,-6.036,-6.0379,-6.0448,-6.0472,-6.0173,-6.0173,-6.0173,0,-5.9172,-5.931,-5.9315,-5.9418,-5.947,-5.9442,-5.9556,-5.9603,-5.9698,-5.9735,-5.9694,-5.9882,-5.9927,-6.0086,-6.0132,-6.0169,-6.0201,-6.0149,-6.0356,-6.0375,-6.0393,-6.0459,-6.0485,-6.0179,-6.0178,-6.0177,-6.0177,0,-5.9397,-5.9493,-5.9574,-5.9669,-5.9729,-5.9837,-5.9859,-5.992,-5.9916,-5.994,-6.0072,-6.0125,-6.0219,-6.0256,-6.0252,-6.0416,-6.0392,-6.0354,-6.0281,-6.0425,-6.0487,-6.0513,-6.0187,-6.0185,-6.0183,-6.0182,0,0,-5.9608,-5.9705,-5.9735,-5.9778,-5.9856,-5.9931,-6.0038,-6.013,-6.0183,-6.025,-6.0341,-6.0469,-6.0435,-6.0487,-6.0488,-6.0563,-6.0712,-6.0516,-6.0518,-6.0552,-6.0897,-6.0927,-6.0956,-6.0697,-6.0702,-6.0706,-6.0892,0,-5.9783,-5.9972,-5.998,-6.0152,-6.0242,-6.0218,-6.0311,-6.037,-6.0395,-6.0476,-6.0503,-6.0595,-6.0542,-6.0573,-6.0646,-6.0679,-6.0782,-6.0665,-6.0783,-6.0787,-6.0767,-6.0988,-6.1019,-6.1192,-6.0916,-6.092,-6.0923,0,-6.0012,-6.0088,-6.0269,-6.0337,-6.0375,-6.0459,-6.0545,-6.0622,-6.0688,-6.0702,-6.0761,-6.0752,-6.0863,-6.0786,-6.0939,-6.086,-6.0908,-6.0932,-6.0939,-6.0951,-6.0864,-6.1007,-6.1247,-6.1274,-6.0961,-6.0958,-6.0956,0,-6.015,-6.0297,-6.0425,-6.0462,-6.0544,-6.0604,-6.0641,-6.0703,-6.0758,-6.0834,-6.087,-6.0957,-6.1005,-6.1073,-6.1089,-6.1031,-6.1243,-6.1166,-6.1258,-6.1258,-6.1304,-6.1301,-6.1557,-6.1333,-6.1333,-6.1333,-6.1332,0,-6.0346,-6.0458,-6.0488,-6.0567,-6.0693,-6.0702,-6.0826,-6.0858,-6.0914,-6.1,-6.0983,-6.1064,-6.1079,-6.1163,-6.1176,-6.1302,-6.1323,-6.1338,-6.134,-6.134,-6.1338,-6.1372,-6.1361,-6.1339,-6.1338,-6.1337,-6.1335,0,-6.0521,-6.0546,-6.0684,-6.075,-6.077,-6.086,-6.0917,-6.0993,-6.1017,-6.1125,-6.1151,-6.1189,-6.1287,-6.1309,-6.1425,-6.1434,-6.1584,-6.1574,-6.1562,-6.1562,-6.1652,-6.1644,-6.194,-6.198,-6.1729,-6.1731,-6.1733,0,-6.0644,-6.073,-6.0807,-6.0863,-6.0903,-6.0993,-6.105,-6.1063,-6.1123,-6.1207,-6.1273,-6.137,-6.1448,-6.1606,-6.1644,-6.1734,-6.1726,-6.1824,-6.174,-6.1738,-6.173,-6.1725,-6.1734,-6.184,-6.1843,-6.1845,-6.1847,0,-6.0862,-6.087,-6.0953,-6.1042,-6.111,-6.118,-6.1247,-6.1294,-6.1316,-6.1384,-6.1485,-6.1546,-6.1666,-6.1762,-6.1852,-6.189,-6.1874,-6.1873,-6.1899,-6.19,-6.1891,-6.1899,-6.1607,-6.1866,-6.1864,-6.1863,-6.1862,-6.1861,-6.1016,-6.1092,-6.1158,-6.1252,-6.1303,-6.1367,-6.1442,-6.1476,-6.156,-6.1659,-6.1662,-6.1772,-6.1838,-6.1958,-6.2001,-6.2088,-6.2058,-6.2095,-6.2105,-6.2115,-6.2124,-6.1876,-6.2104,-6.2104,-6.2103,-6.2103,-6.2103,0,-6.1233,-6.1275,-6.1361,-6.1456,-6.153,-6.1507,-6.158,-6.1644,-6.1742,-6.1805,-6.1882,-6.1999,-6.2093,-6.2139,-6.2233,-6.2294,-6.2288,-6.2318,-6.2314,-6.2324,-6.2144,-6.2113,-6.2321,-6.2321,-6.2321,-6.2321,-6.2321,-6.2321,-6.1355,-6.1484,-6.1501,-6.1655,-6.1696,-6.1804,-6.1848,-6.1907,-6.1958,-6.2089,-6.2167,-6.2197,-6.2254,-6.2352,-6.2438,-6.2449,-6.2485,-6.2519,-6.2526,-6.2358,-6.2336,-6.2315,-6.2286,-6.2526,-6.2526,-6.2698,-6.27,-6.2701]}]]